owner,sensor,date,latitude,longitude,vertical_datum,wind_speed,wind_to_direction,wind_speed_of_gust,qcFlag 
TCOON,ioos:station:TCOON:524:1,2019-12-03T00:00:00Z,29.8672,-93.9310,0.0,2.1,340.0,2.8,'11111222,11111222,11111222' 
TCOON,ioos:station:TCOON:524:1,2019-12-03T00:18:00Z,29.8672,-93.9310,0.0,2.0,340.0,2.6,'11111222,11111222,11111222' 
TCOON,ioos:station:TCOON:524:1,2019-12-03T01:18:00Z,29.8672,-93.9310,0.0,0.9,33.0,2.5,'11111222,11111222,11111222' 
TCOON,ioos:station:TCOON:524:1,2019-12-03T02:18:00Z,29.8672,-93.9310,0.0,0.5,346.0,0.8,'11111222,11111222,11111222' 
TCOON,ioos:station:TCOON:524:1,2019-12-03T03:18:00Z,29.8672,-93.9310,0.0,1.9,19.0,2.8,'11111222,11111222,11111222' 
TCOON,ioos:station:TCOON:524:1,2019-12-03T04:18:00Z,29.8672,-93.9310,0.0,1.1,51.0,1.9,'11111222,11111222,11111222' 
TCOON,ioos:station:TCOON:524:1,2019-12-03T05:18:00Z,29.8672,-93.9310,0.0,1.1,48.0,1.9,'11111222,11111222,11111222' 
TCOON,ioos:station:TCOON:524:1,2019-12-03T06:18:00Z,29.8672,-93.9310,0.0,0.9,92.0,1.6,'11111222,11111222,11111222' 
TCOON,ioos:station:TCOON:524:1,2019-12-03T07:18:00Z,29.8672,-93.9310,0.0,1.4,106.0,2.1,'11111222,11111222,11111222' 
TCOON,ioos:station:TCOON:524:1,2019-12-03T08:18:00Z,29.8672,-93.9310,0.0,0.5,41.0,0.8,'11111222,11111222,11111222' 
TCOON,ioos:station:TCOON:524:1,2019-12-03T09:18:00Z,29.8672,-93.9310,0.0,0.7,324.0,1.0,'11111222,11111222,11111222' 
TCOON,ioos:station:TCOON:524:1,2019-12-03T10:18:00Z,29.8672,-93.9310,0.0,0.5,340.0,0.6,'11111222,11111222,11111222' 
TCOON,ioos:station:TCOON:524:1,2019-12-03T11:18:00Z,29.8672,-93.9310,0.0,0.1,81.0,0.5,'11111222,11111222,11111222' 
TCOON,ioos:station:TCOON:524:1,2019-12-03T12:18:00Z,29.8672,-93.9310,0.0,1.8,110.0,3.1,'11111222,11111222,11111222' 
TCOON,ioos:station:TCOON:524:1,2019-12-03T13:18:00Z,29.8672,-93.9310,0.0,2.2,87.0,3.2,'11111222,11111222,11111222' 
TCOON,ioos:station:TCOON:524:1,2019-12-03T14:18:00Z,29.8672,-93.9310,0.0,3.3,101.0,5.0,'11111222,11111222,11111222' 
TCOON,ioos:station:TCOON:524:1,2019-12-03T15:18:00Z,29.8672,-93.9310,0.0,2.8,96.0,4.1,'11111222,11111222,11111222' 
TCOON,ioos:station:TCOON:524:1,2019-12-03T16:18:00Z,29.8672,-93.9310,0.0,2.8,155.0,3.9,'11111222,11111222,11111222' 
TCOON,ioos:station:TCOON:524:1,2019-12-03T17:18:00Z,29.8672,-93.9310,0.0,3.4,134.0,5.4,'11111222,11111222,11111222' 
TCOON,ioos:station:TCOON:524:1,2019-12-03T18:18:00Z,29.8672,-93.9310,0.0,3.2,176.0,4.7,'11111222,11111222,11111222' 
TCOON,ioos:station:TCOON:524:1,2019-12-03T19:18:00Z,29.8672,-93.9310,0.0,3.3,200.0,5.1,'11111222,11111222,11111222' 
TCOON,ioos:station:TCOON:524:1,2019-12-03T20:18:00Z,29.8672,-93.9310,0.0,5.7,197.0,7.9,'11111222,11111222,11111222' 
TCOON,ioos:station:TCOON:524:1,2019-12-03T21:18:00Z,29.8672,-93.9310,0.0,4.1,169.0,5.9,'11111222,11111222,11111222' 
TCOON,ioos:station:TCOON:524:1,2019-12-03T22:24:00Z,29.8672,-93.9310,0.0,2.6,180.0,3.7,'11111222,11111222,11111222' 
TCOON,ioos:station:TCOON:524:1,2019-12-03T23:18:00Z,29.8672,-93.9310,0.0,1.2,176.0,2.7,'11111222,11111222,11111222' 
TCOON,ioos:station:TCOON:524:1,2019-12-04T00:18:00Z,29.8672,-93.9310,0.0,0.3,179.0,1.3,'11111222,11111222,11111222' 
TCOON,ioos:station:TCOON:524:1,2019-12-04T01:18:00Z,29.8672,-93.9310,0.0,0.8,140.0,1.3,'11111222,11111222,11111222' 
TCOON,ioos:station:TCOON:524:1,2019-12-04T02:18:00Z,29.8672,-93.9310,0.0,0.2,146.0,0.5,'11111222,11111222,11111222' 
TCOON,ioos:station:TCOON:524:1,2019-12-04T03:18:00Z,29.8672,-93.9310,0.0,0.3,118.0,0.5,'11111222,11111222,11111222' 
TCOON,ioos:station:TCOON:524:1,2019-12-04T04:18:00Z,29.8672,-93.9310,0.0,0.4,117.0,0.9,'11111222,11111222,11111222' 
TCOON,ioos:station:TCOON:524:1,2019-12-04T05:18:00Z,29.8672,-93.9310,0.0,1.0,75.0,1.1,'11111222,11111222,11111222' 
TCOON,ioos:station:TCOON:524:1,2019-12-04T06:18:00Z,29.8672,-93.9310,0.0,0.2,286.0,0.5,'11111222,11111222,11111222' 
TCOON,ioos:station:TCOON:524:1,2019-12-04T07:18:00Z,29.8672,-93.9310,0.0,0.7,167.0,1.6,'11111222,11111222,11111222' 
TCOON,ioos:station:TCOON:524:1,2019-12-04T08:18:00Z,29.8672,-93.9310,0.0,0.3,109.0,0.4,'11111222,11111222,11111222' 
TCOON,ioos:station:TCOON:524:1,2019-12-04T09:18:00Z,29.8672,-93.9310,0.0,0.5,267.0,1.4,'11111222,11111222,11111222' 
TCOON,ioos:station:TCOON:524:1,2019-12-04T10:18:00Z,29.8672,-93.9310,0.0,1.2,273.0,1.6,'11111222,11111222,11111222' 
TCOON,ioos:station:TCOON:524:1,2019-12-04T11:18:00Z,29.8672,-93.9310,0.0,1.9,325.0,2.2,'11111222,11111222,11111222' 
TCOON,ioos:station:TCOON:524:1,2019-12-04T12:18:00Z,29.8672,-93.9310,0.0,3.1,308.0,6.3,'11111222,11111222,11111222' 
TCOON,ioos:station:TCOON:524:1,2019-12-04T13:18:00Z,29.8672,-93.9310,0.0,2.5,332.0,3.2,'11111222,11111222,11111222' 
TCOON,ioos:station:TCOON:524:1,2019-12-04T14:18:00Z,29.8672,-93.9310,0.0,2.7,340.0,3.7,'11111222,11111222,11111222' 
TCOON,ioos:station:TCOON:524:1,2019-12-04T15:18:00Z,29.8672,-93.9310,0.0,2.2,346.0,2.7,'11111222,11111222,11111222' 
TCOON,ioos:station:TCOON:524:1,2019-12-04T16:18:00Z,29.8672,-93.9310,0.0,1.5,69.0,2.4,'11111222,11111222,11111222' 
TCOON,ioos:station:TCOON:524:1,2019-12-04T17:18:00Z,29.8672,-93.9310,0.0,1.7,76.0,2.9,'11111222,11111222,11111222' 
TCOON,ioos:station:TCOON:524:1,2019-12-04T18:18:00Z,29.8672,-93.9310,0.0,2.2,81.0,3.6,'11111222,11111222,11111222' 
TCOON,ioos:station:TCOON:524:1,2019-12-04T19:48:00Z,29.8672,-93.9310,0.0,2.1,102.0,2.9,'11111222,11111222,11111222' 
TCOON,ioos:station:TCOON:524:1,2019-12-04T20:18:00Z,29.8672,-93.9310,0.0,2.2,87.0,3.0,'11111222,11111222,11111222' 
 
DISCLAIMER: The Gulf of Mexico Coastal and Ocean Observing (GCOOS) Data Portal aggregates data from the regional data providers for the convenience of all data users. Data published on this website should not be used for navigation or certain other uses as we cannot guarantee data accuracy or availability. The data and delivery services are provided 'as is' without warranty of any kind. Data Source: Gulf of Mexico Coastal Ocean Observing System Data Portal (http://data.gcoos.org/) 
